This demonstration page uses our WeatherBlox Daily Observations layout. Learn more.

Left ArrowRight Arrow

39.92423, -83.80882

Hourly Observations for May 4, 2018

Temp ( °F °C ) Dew Point ( °F °C ) Humidity (%) Winds ( mph kmh ) Pressure ( in mb ) Visibility ( mi km ) Precip ( " mm )
12:56 am 00:56 Clear 64 17.8 61 16.1 90 90 Calm 29.97 1015 10 16.0934 0 0
1:56 am 01:56 Cloudy 64 17.8 61 16.1 90 90 Calm 29.98 1015 10 16.0934 0 0
2:56 am 02:56 Mostly Clear 63 17.2 60 15.6 90 90 SSE 6 9 29.95 1014 10 16.0934 0 0
3:56 am 03:56 Partly Cloudy 64 17.8 60 15.6 87 87 S 7 11 29.94 1014 10 16.0934 0 0
4:56 am 04:56 Mostly Clear 66 18.9 60 15.6 81 81 S 9 15 29.92 1013 10 16.0934 0 0
5:56 am 05:56 Cloudy 67 19.4 60 15.6 79 79 SSW 14 22 29.9 1013 10 16.0934 0 0
6:56 am 06:56 Cloudy 68 20 59 15 73 73 SW 15 24 29.91 1013 10 16.0934 0 0.0254
7:56 am 07:56 Cloudy 70 21.1 60 15.6 71 71 SW 22 35 29.91 1013 10 16.0934 0 0
8:56 am 08:56 Mostly Cloudy 71 21.7 60 15.6 68 68 SW 20 31 29.92 1013 10 16.0934 0 0
9:56 am 09:56 Mostly Cloudy 73 22.8 60 15.6 64 64 WSW 18 30 29.91 1013 10 16.0934 0 0
10:56 am 10:56 Mostly Sunny 76 24.4 60 15.6 58 58 SW 22 35 29.88 1012 10 16.0934 0 0
11:56 am 11:56 Mostly Sunny 79 26.1 60 15.6 52 52 SW 24 39 29.88 1012 10 16.0934 0 0
12:56 pm 12:56 Mostly Sunny 78 25.6 60 15.6 54 54 WSW 20 31 29.88 1012 10 16.0934 0 0
1:56 pm 13:56 Mostly Sunny 81 27.2 60 15.6 49 49 WSW 31 50 29.88 1012 10 16.0934 0 0
2:56 pm 14:56 Mostly Sunny 80 26.7 56 13.3 44 44 WSW 29 46 29.88 1012 10 16.0934 0 0
3:56 pm 15:56 Mostly Cloudy 77 25 57 13.9 50 50 WNW 24 39 29.91 1013 10 16.0934 0 0
4:07 pm 16:07 Cloudy with Rain 66 19 61 16 83 83 W 16 26 29.91 1013 10 16.0934 0.02 0.508
4:20 pm 16:20 Cloudy with Heavy Thunderstorms 64 18 63 17 94 94 W 17 28 29.91 1013 5 8.0467 0.04 1.016
4:35 pm 16:35 Cloudy with Light Rain 66 19 63 17 88 88 W 10 17 29.91 1013 6 9.65604 0.05 1.27
4:56 pm 16:56 Cloudy 68 20 63 17.2 84 84 W 12 19 29.94 1014 10 16.0934 0.05 1.27
5:56 pm 17:56 Mostly Cloudy 69 20.6 61 16.1 76 76 NNW 9 15 29.97 1015 10 16.0934 0.01 0.254
6:56 pm 18:56 Sunny 67 19.4 58 14.4 73 73 NNW 7 11 29.99 1016 10 16.0934 0 0
7:56 pm 19:56 Sunny 65 18.3 55 12.8 70 70 NNW 9 15 30.01 1016 10 16.0934 0.01 0.254
8:56 pm 20:56 Clear 63 17.2 53 11.7 70 70 N 8 13 30.04 1017 10 16.0934 0.01 0.254
9:56 pm 21:56 Clear 60 15.6 52 11.1 75 75 NW 3 6 30.06 1018 10 16.0934 0.01 0.254
10:56 pm 22:56 Clear 57 13.9 51 10.6 81 81 Calm 30.09 1019 10 16.0934 0.01 0.254
11:56 pm 23:56 Clear 57 13.9 52 11.1 83 83 N 6 9 30.09 1019 10 16.0934 0 0

Powered by AerisWeather